Regional Weather Roundup
Issued by NWS Little Rock, AR

Home | Current Version | Previous Version | Text Only | Print | Product List | Glossary On
Versions: 1 2 3 4 5 6 7 8 9 10 11 12 13 14 15 16 17 18 19 20 21 22 23 24 25 26 27 28 29 30 31 32 33 34 35 36 37 38 39 40 41 42 43 44 45 46 47 48 49 50
000
ASUS44 KLZK 310905
RWRLZK

WEATHER ROUNDUP FOR ARKANSAS
NATIONAL WEATHER SERVICE LITTLE ROCK AR
400 AM CDT THU JUL 31 2014

NOTE: "FAIR" INDICATES FEW OR NO CLOUDS BELOW 12,000 FEET WITH NO
SIGNIFICANT WEATHER AND/OR OBSTRUCTIONS TO VISIBILITY.

ARZ001-003-010-029-311000-
NORTHWEST ARKANSAS

CITY           SKY/WX    TMP DP  RH WIND       PRES   REMARKS
FAYETTEVILLE   CLOUDY    66  65  96 CALM      30.09R
FORT SMITH     CLOUDY    69  67  93 E5        30.05S
HARRISON       CLOUDY    65  65 100 CALM      30.10S
BENTONVILLE    CLOUDY    66  63  88 NE5       30.09S
ROGERS         CLOUDY    65  63  93 NE6       30.10S
SILOAM SPGS    CLOUDY    66  61  82 CALM      30.09S
HIGHFILL       CLOUDY    67  67 100 NE3       30.08S
$$

ARZ004-005-016-311000-
NORTH CENTRAL ARKANSAS

CITY           SKY/WX    TMP DP  RH WIND       PRES   REMARKS
BATESVILLE     CLOUDY    66  66 100 CALM      30.07S
FLIPPIN        CLOUDY    66  66 100 CALM      30.08S
MTN HOME       CLOUDY    67  67 100 CALM      30.07F FOG
$$

ARZ040-041-311000-
WEST CENTRAL ARKANSAS

CITY           SKY/WX    TMP DP  RH WIND       PRES   REMARKS
MENA           CLOUDY    66  64  94 CALM      30.06F
MOUNT IDA      LGT RAIN  65  64  97 CALM      30.05R FOG
$$

ARZ009-017-025-026-028-311000-
NORTHEAST ARKANSAS

CITY           SKY/WX    TMP DP  RH WIND       PRES   REMARKS
JONESBORO      CLOUDY    69  66  90 CALM      30.07S
NEWPORT        CLOUDY    69  68  97 VRB6      30.08S
WALNUT RIDGE   CLOUDY    70  64  83 CALM      30.06F
BLYTHEVILLE    CLOUDY    70  67  90 CALM      30.07S
$$

ARZ022-023-033-042-044-311000-
CENTRAL ARKANSAS

CITY           SKY/WX    TMP DP  RH WIND       PRES   REMARKS
LITTLE ROCK    CLOUDY    67  63  87 CALM      30.08S
N LITTLE ROCK    N/A     66  65  98 NE3       30.08S
JACKSONVILLE   LGT RAIN  66  66 100 CALM      30.08R
SEARCY         LGT RAIN  67  67 100 CALM      30.08S FOG
HOT SPRINGS    LGT RAIN  66  64  93 E7        30.07S
RUSSELLVILLE   CLOUDY    69  67  93 CALM      30.06F
CLINTON        RAIN      68  68 100 CALM      30.08S
$$

ARZ036-311000-
EAST ARKANSAS

CITY           SKY/WX    TMP DP  RH WIND       PRES   REMARKS
WEST MEMPHIS   CLOUDY    68  68 100 CALM      30.05F
$$

ARZ050-053-066-070-073-311000-
SOUTHWEST ARKANSAS

CITY           SKY/WX    TMP DP  RH WIND       PRES   REMARKS
ARKADELPHIA    LGT RAIN  67  67 100 NE5       30.06R
CAMDEN         RAIN      68  64  88 E7        30.03F
TEXARKANA      LGT RAIN  69  66  90 SE6       30.01F
EL DORADO      CLOUDY    68  67  96 E7        30.03F
DE QUEEN       HVY RAIN  67  66  97 E6        30.02S FOG
$$

ARZ056-057-069-311000-
SOUTHEAST ARKANSAS

CITY           SKY/WX    TMP DP  RH WIND       PRES   REMARKS
PINE BLUFF     LGT RAIN  66  65  96 N5        30.08S
STUTTGART      CLOUDY    66  64  94 N7        30.08F
MONTICELLO     LGT RAIN  69  66  90 CALM      30.06S

$$




USA.gov is the U.S. government's official web portal to all federal, state and local government web resources and services.